Location: ????????
(55.3476°N, 37.9780°E)
Time: 05:53:32
(UTC+00:00)

Daily predictions for brighter satellites

Satellite Brightness Start Highest point End
(mag) Time Altitude Azimuth Time Altitude Azimuth Time Altitude Azimuth
Cosmos 2369 Rocket 4.2 00:17:55 24° NE 00:17:55 24° NE 00:21:52 10° E
ADEOS Rocket 4.1 00:15:33 10° NNE 00:21:56 48° E 00:21:56 48° E
ADEOS II 4.4 00:17:45 10° NNE 00:19:01 18° NNE 00:19:01 18° NNE
Cosmos 2360 Rocket 4.1 00:29:09 23° NNE 00:29:09 23° NNE 00:31:17 10° NNE
Cosmos 2322 Rocket 4.1 00:34:12 24° NNE 00:34:12 24° NNE 00:36:26 10° NNE
Cosmos 2333 Rocket 4.1 00:35:28 24° NNE 00:35:28 24° NNE 00:37:49 10° NNE
SJ 16-02 4.3 00:38:25 11° E 00:38:25 11° E 00:38:40 10° ESE
USA 234 3.9 00:30:33 10° ESE 00:35:07 49° ESE 00:35:07 49° ESE
CZ-2D R/B 4.3 00:35:36 10° NNE 00:36:47 17° NNE 00:36:47 17° NNE
ACS3 Solar Sail 2.7 00:35:36 10° NNE 00:39:55 44° NE 00:39:55 44° NE
SL-16 R/B 4.1 00:44:51 22° NNE 00:44:51 22° NNE 00:47:06 10° NNE
COSMOS 2455 4.1 00:46:06 34° NNE 00:46:06 34° NNE 00:49:36 10° NE
Resurs 1-4 Rocket 4.3 00:47:58 10° NNE 00:49:16 18° N 00:49:16 18° N
Cosmos 1725 Rocket 4.5 00:52:24 10° N 00:58:40 58° ENE 01:04:53 10° SSE
Cosmos 2219 Rocket 3.5 01:03:00 33° NNE 01:03:00 33° NNE 01:06:12 10° NNE
NOSS 3-1 (C) 4.0 01:03:05 47° ENE 01:03:05 47° ENE 01:07:36 10° NE
Cosmos 1727 Rocket 4.4 01:07:36 58° NNE 01:07:36 58° NNE 01:12:35 10° NNE
Lacrosse 4 Rocket 4.0 01:11:04 15° NE 01:11:04 15° NE 01:12:32 10° ENE
NOSS 3-2 (C) 4.3 01:11:41 43° N 01:12:10 43° N 01:19:20 10° ENE
Lacrosse 5 rocket 4.2 01:16:10 12° E 01:16:10 12° E 01:16:29 10° E
H-2A R/B 3.6 01:14:37 10° NNE 01:16:39 25° NNE 01:16:39 25° NNE
Cosmos 1802 Rocket 4.2 01:13:40 10° N 01:21:19 60° SSE 01:26:21 10° SSE
NOSS 0 Rocket 4.2 01:20:16 58° SE 01:20:53 61° ESE 01:26:57 10° NE
Cosmos 1000 Rocket 4.4 01:28:39 84° S 01:28:54 89° E 01:35:17 10° NNE
NOSS 3-2 (A) 4.2 01:31:49 43° NNW 01:33:42 54° NNE 01:41:34 10° E
COSMOS 2428 2.7 01:39:07 69° N 01:39:07 69° N 01:44:14 10° NNE
Cosmos 1980 Rocket 4.1 01:38:37 17° N 01:38:58 17° N 01:42:35 10° NE
Meteor 2-5 Rocket 3.9 01:37:02 40° S 01:39:10 72° E 01:44:56 10° NNE
Cosmos 2322 3.9 01:40:27 60° N 01:40:27 60° N 01:45:19 10° NNE
USA 267 4.3 01:34:31 10° ENE 01:40:34 39° SE 01:44:05 23° S
CZ-2C R/B 2.8 01:36:02 10° NNE 01:41:05 65° ESE 01:42:21 48° SSE
Cosmos 1980 4.0 01:40:45 50° S 01:42:01 64° ESE 01:47:39 10° NE
Cosmos 2123 Rocket 3.9 01:39:50 32° S 01:42:56 82° E 01:49:09 10° NNE
Cosmos 2016 Rocket 3.9 01:37:27 10° NNW 01:43:52 83° W 01:50:13 10° S
Cosmos 1939 Rocket 4.0 01:46:58 10° NNE 01:50:38 40° E 01:51:20 36° SE
NOSS 3-1 (A) 3.2 01:50:03 62° S 01:50:41 69° SE 01:56:44 10° NE
Meteor 2-21 4.2 01:50:58 71° W 01:51:06 71° WNW 01:57:09 10° N
Cosmos 2084 4.4 01:52:25 39° NE 01:52:25 39° NE 01:55:50 10° E
Cosmos 1190 Rocket 4.3 01:54:11 53° S 01:54:11 53° S 01:58:13 10° SSE
Cosmos 676 Rocket 4.0 01:54:26 61° NNW 01:55:21 82° ENE 02:00:33 10° SSE
CENTAUR R/B 3.2 01:52:52 38° NW 01:56:31 84° NE 02:05:48 10° SE
Cosmos 2297 4.1 01:54:05 33° NNW 01:56:32 62° NE 02:02:07 10° SE
Cosmos 2237 Rocket 2.3 01:55:42 44° SSW 01:57:30 75° ESE 02:03:10 10° NE
ARGOS 3.0 01:52:05 10° NNE 01:57:34 86° WNW 01:58:54 53° SSW
ADEOS II 3.7 01:57:42 10° N 01:59:50 21° NNW 01:59:50 21° NNW
Cosmos 2369 Rocket 2.4 01:59:43 33° NNW 02:02:18 68° NE 02:07:58 10° SE
USA 238 DEB 4.4 02:03:31 35° NW 02:05:38 44° N 02:12:43 10° ENE
USA 238 4.4 02:03:37 35° NW 02:05:44 44° N 02:12:49 10° ENE
Cosmos 1954 Rocket 3.8 02:07:31 67° SW 02:07:31 67° SW 02:12:29 10° SSE
ADEOS Rocket 3.5 02:01:14 10° N 02:07:38 51° WNW 02:08:51 46° W
Cosmos 2360 Rocket 3.5 02:10:54 24° NNW 02:10:54 24° NNW 02:15:14 10° NNE
Meteor 2-16 Rocket 4.3 02:05:47 11° SSW 02:11:38 79° WNW 02:17:50 10° N
SJ 16-02 2.0 02:15:02 40° S 02:15:02 40° S 02:17:55 10° SSE
Cosmos 2322 Rocket 3.6 02:15:59 23° NNW 02:16:01 23° NNW 02:20:29 10° NNE
IRS-1D 4.4 02:11:27 10° NNE 02:16:15 46° E 02:20:59 10° S
Cosmos 2333 Rocket 3.7 02:17:29 22° NNW 02:17:48 22° NNW 02:22:14 10° NNE
SKYMED 2 3.7 02:13:39 10° SSE 02:17:58 75° ENE 02:21:03 19° N
CZ-2D R/B 4.0 02:16:25 10° N 02:18:02 16° NNW 02:18:02 16° NNW
USA 234 3.5 02:14:11 10° SE 02:20:33 51° SW 02:22:27 40° W
NOSS 2-2 (E) 3.9 02:23:27 41° N 02:23:55 44° NNE 02:28:00 10° ESE
ACS3 Solar Sail 2.3 02:18:53 10° N 02:24:02 37° NW 02:24:02 37° NW
SeaSat 1 4.1 02:21:13 10° NNE 02:24:16 19° NNW 02:24:16 19° NNW
COSMO-SKYMED 1 2.8 02:20:55 10° SSE 02:24:59 65° ENE 02:28:38 13° N
USA 59 Rocket 1.0 02:28:26 22° NNE 02:28:26 22° NNE 02:29:53 10° NE
SL-16 R/B 3.9 02:26:41 18° NNW 02:27:34 18° NNW 02:31:27 10° NNE
Cosmos 968 Rocket 3.5 02:25:09 22° NNW 02:28:36 80° ENE 02:33:51 10° SSE
COSMOS 2455 3.9 02:29:14 26° NW 02:30:45 29° NNW 02:35:59 10° NE
Cosmos 1741 Rocket 4.3 02:26:44 17° NNW 02:30:53 67° ENE 02:36:10 10° SE
Resurs 1-4 Rocket 4.0 02:28:51 10° N 02:30:19 14° NNW 02:30:19 14° NNW
Cosmos 371 Rocket 3.4 02:32:57 49° W 02:33:21 51° WSW 02:38:01 10° S
Cosmos 2061 Rocket 4.0 02:29:24 10° NNW 02:35:27 56° W 02:41:28 10° S
Cosmos 1891 Rocket 4.5 02:29:33 10° NNW 02:35:59 89° ENE 02:42:15 10° S
CZ-4 R/B 4.3 02:33:26 10° NNE 02:38:18 63° ESE 02:43:01 10° S
Aureole 3 Rocket 3.6 02:35:07 10° NNW 02:39:52 80° W 02:46:31 10° S
Cosmos 2292 Rocket 4.3 02:35:23 14° SSW 02:40:02 59° WNW 02:46:41 10° N
Cosmos 1656 Rocket 3.9 02:38:46 36° WNW 02:40:25 47° WSW 02:45:49 10° S
Cosmos 304 Rocket 4.1 02:41:42 42° W 02:41:55 42° WSW 02:46:23 10° S
Gbstr 26 Del rocket 3.8 02:39:59 36° WSW 02:41:55 61° S 02:47:56 10° ESE
Meteor 1-24 Rocket 4.0 02:41:06 36° W 02:42:25 42° WNW 02:47:36 10° N
Cosmos 2219 Rocket 3.5 02:44:42 23° NW 02:45:36 23° NNW 02:50:08 10° NNE
Cosmos 2233 Rocket 4.2 02:40:22 10° NNW 02:46:19 45° W 02:52:12 10° SSW
Cosmos 1400 Rocket 2.6 02:44:17 19° NNW 02:46:54 82° ENE 02:50:34 10° SSE
Lacrosse 4 Rocket 2.3 02:46:35 22° NNW 02:48:45 41° NE 02:52:30 10° ESE
Cosmos 2151 Rocket 3.7 02:44:50 10° N 02:49:22 78° ENE 02:53:51 10° SSE
Cosmos 1484 Rocket 4.5 02:46:56 10° NNE 02:50:09 31° E 02:53:21 10° SSE
Lacrosse 5 rocket 0.7 02:49:50 61° WSW 02:50:13 70° SSW 02:53:33 10° ESE
In-Cosmos 22 Rocket 4.4 02:45:26 10° S 02:51:15 79° E 02:57:03 10° NNE
USA 306 3.5 02:50:32 27° SSW 02:51:48 38° SSE 02:55:24 10° E
NOSS 3-1 (C) 3.7 02:50:25 32° WNW 02:52:38 48° NNW 02:59:04 10° NE
NOSS 2-2 (C) 3.2 02:53:25 42° WNW 02:54:37 74° SW 02:59:22 10° SE
Sich 1 Rocket 4.1 02:51:52 10° N 02:56:25 64° ENE 03:00:53 10° SSE
Cosmos 1447 Rocket 4.4 02:50:12 10° SSW 02:56:29 78° WNW 03:02:52 10° N
H-2A R/B 3.5 02:54:51 10° N 02:57:08 18° NW 02:57:08 18° NW
Cosmos 1464 Rocket 4.0 02:52:06 10° N 02:58:19 85° E 03:04:27 10° SSE
H-2A R/B 3.8 02:55:38 10° N 02:58:58 35° WNW 02:58:58 35° WNW
SL-16 R/B 2.5 02:55:08 10° SSW 03:00:47 70° ESE 03:06:29 10° NE
PAYLOAD A 4.4 02:55:50 10° N 03:00:54 43° WNW 03:05:41 11° SW
SWARM C 4.4 02:58:26 10° S 03:01:45 90° WSW 03:05:06 10° N
SWARM A 4.3 02:58:33 10° S 03:01:52 78° E 03:05:12 10° N
Cosmos 1624 Rocket 3.9 02:56:54 10° SSW 03:02:05 82° WNW 03:07:19 10° NNE
Cosmos 1420 Rocket 4.1 02:57:42 15° SW 03:02:06 57° NW 03:07:21 10° NNE
Cosmos 332 Rocket 3.7 02:58:13 16° NNW 03:02:10 83° WSW 03:06:56 10° SSE
NOSS 3-2 (C) 4.1 02:59:05 19° NW 03:04:05 66° NNE 03:12:18 10° ESE
SL-08 RB Rocket 4.3 03:00:34 10° N 03:04:40 34° WNW 03:06:14 26° W
Helios 1A Rocket 2.8 03:01:58 10° S 03:05:08 39° W 03:05:20 38° W
Cosmos 1378 Rocket 3.5 03:00:53 10° S 03:05:09 81° E 03:09:28 10° NNE
Cosmos 2242 Rocket 3.5 03:02:26 10° SSW 03:06:49 68° WNW 03:11:16 10° N
Okean 1 Rocket 3.1 03:03:07 10° N 03:07:28 77° ENE 03:11:47 10° SSE
NOSS 0 Rocket 4.3 03:04:17 24° W 03:07:38 43° NW 03:13:31 10° NNE
Cosmos 2346 Rocket 4.4 03:03:06 10° SSW 03:09:10 63° WNW 03:15:12 10° N
Cosmos 2034 Rocket 4.3 03:03:18 10° N 03:09:40 73° ENE 03:16:02 10° SSE
Cosmos 1812 3.9 03:14:35 17° SW 03:14:35 17° SW 03:15:32 10° SSW
Meteor 2-1 Rocket 4.4 03:07:15 10° NNW 03:13:14 82° ENE 03:19:04 10° SSE
NOSS 2-1 (E) 4.0 03:16:18 24° NNW 03:16:45 24° NNW 03:19:21 10° NE
NOSS 2-2 (D) 3.2 03:14:49 26° NW 03:16:47 82° SW 03:21:27 10° SE
Cosmos 1850 Rocket 4.0 03:14:13 13° NW 03:18:48 58° WSW 03:23:51 10° S
CZ-2C R/B 3.4 03:14:34 10° N 03:18:49 28° WNW 03:21:33 18° WSW
PKM 4.2 03:19:13 20° WNW 03:22:49 60° SSW 03:25:42 10° SE
COSMOS 2428 3.8 03:21:07 20° WNW 03:23:38 27° NNW 03:28:26 10° NNE
USA 267 3.4 03:17:36 10° ENE 03:24:12 80° SSE 03:30:45 10° WSW
Cosmos 1939 Rocket 3.7 03:21:12 10° N 03:24:27 27° WNW 03:26:12 19° WSW
NOSS 3-2 (A) 4.0 03:19:10 16° NW 03:25:01 75° SW 03:33:32 10° SE
Cosmos 1980 Rocket 4.0 03:20:56 10° NNW 03:25:10 21° NNE 03:29:21 10° ENE
Cosmos 1980 4.3 03:22:38 17° W 03:26:27 37° NW 03:31:44 10° NNE
USA 229 DEB 4.0 03:20:43 10° SSW 03:26:40 64° SE 03:33:27 10° NE
USA 229 4.0 03:20:56 10° SSW 03:26:53 63° SE 03:33:40 10° NE
IGS 5A 4.1 03:24:02 10° NNE 03:28:01 57° E 03:31:58 10° S
Cosmos 1072 Rocket 4.5 03:24:08 10° NNW 03:30:07 59° W 03:36:08 10° S
Cosmos 2084 3.4 03:28:09 20° WNW 03:30:50 61° SW 03:34:47 10° SE
Cosmos 1331 Rocket 4.2 03:27:06 10° SSW 03:32:20 74° ESE 03:37:34 10° NNE
Meteor 1-11 4.3 03:29:09 10° SSW 03:35:02 89° E 03:40:54 10° NNE
ARGOS 4.3 03:33:06 10° N 03:37:09 22° NW 03:40:21 13° W
Cosmos 1356 Rocket 4.4 03:33:16 10° N 03:37:12 46° ENE 03:41:08 10° SE
Cosmos 2297 4.4 03:36:01 13° NW 03:40:25 33° WSW 03:45:23 10° S
CBERS-1 4.3 03:35:51 10° NNE 03:41:00 75° ESE 03:46:07 10° SSW
NOSS 3-1 (A) 3.7 03:37:27 15° W 03:41:48 49° NNW 03:48:16 10° NE
Cosmos 2237 Rocket 2.9 03:37:34 13° W 03:42:05 33° NW 03:47:11 10° NNE
SMAP 4.1 03:37:39 10° NNE 03:42:13 50° E 03:46:44 10° S
Cosmos 1441 Rocket 4.2 03:40:19 10° S 03:43:29 43° E 03:46:42 10° NNE
Okean 2 Rocket 3.4 03:40:43 10° NNW 03:44:51 42° W 03:48:58 10° SSW
Cosmos 2369 Rocket 3.0 03:41:31 12° NW 03:45:57 30° WSW 03:50:49 10° SSW
CENTAUR R/B 3.8 03:40:00 12° WNW 03:47:02 43° WSW 03:55:35 10° S
ATLAS 3B R/B 3.2 03:40:34 10° SW 03:48:15 83° SE 03:56:12 10° NE
NOSS 2-1 (D) 4.4 03:49:19 13° NW 03:50:56 19° N 03:53:16 10° NE
Cosmos 2056 Rocket 4.0 03:45:58 10° WSW 03:51:04 42° NW 03:56:11 10° NNE
Cosmos 1943 3.7 03:46:14 10° SSW 03:51:47 66° ESE 03:57:21 10° NE
NOSS 2-1 (C) 4.4 03:52:10 13° NW 03:53:53 19° N 03:56:13 10° NE
IRS-1D 4.0 03:50:50 10° N 03:55:18 35° WNW 03:59:44 10° SW
Orbus 7S? 2.7 03:51:35 10° WSW 03:55:33 84° NNW 03:58:12 10° ENE
Cosmos 2360 Rocket 4.0 03:53:09 10° NW 03:56:42 16° N 04:00:14 10° NE
USA 238 DEB 4.2 03:50:56 11° NW 03:57:45 60° NNE 04:05:26 10° ESE
USA 238 4.2 03:51:02 11° NW 03:57:52 60° NNE 04:05:32 10° ESE
Cosmos 1315 Rocket 3.0 03:54:22 10° N 03:58:14 71° ENE 04:02:04 10° SSE
COSMO-SKYMED 1 3.9 03:57:48 10° SW 04:00:44 19° W 04:03:42 10° NW
Iridium 45 4.2 03:57:48 10° NNW 04:00:57 59° W 04:04:05 10° S
Cosmos 2228 3.3 03:57:08 10° N 04:01:23 70° ENE 04:05:37 10° SSE
Cosmos 292 Rocket 4.0 03:57:25 10° NW 04:02:05 52° WSW 04:06:43 10° S
Cosmos 2322 Rocket 4.0 03:58:35 10° NW 04:02:12 17° N 04:05:49 10° NE
NOSS 2-3 (C) 4.4 03:58:38 10° NW 04:03:05 59° NNE 04:09:07 10° ESE
Cosmos 2333 Rocket 4.0 04:00:26 10° NW 04:04:17 18° N 04:08:08 10° NE
ACS3 Solar Sail 3.5 04:04:01 10° NNW 04:05:43 11° NW 04:07:24 10° NW
Cosmos 1025 Rocket 3.3 04:06:03 10° SSW 04:10:16 48° WNW 04:14:32 10° N
NOSS 2-3 (E) 4.3 04:06:02 10° NW 04:10:38 69° NE 04:16:48 10° ESE
Cosmos 1461 3.9 04:07:37 10° NW 04:11:17 34° NNE 04:14:54 10° E
NOSS 2-2 (E) 4.1 04:09:52 10° WNW 04:13:21 40° SW 04:17:57 10° SSE
SL-16 R/B 4.0 04:10:02 10° NNW 04:13:53 18° NNE 04:17:45 10° NE
MOS 1 Rocket 4.4 04:09:15 10° NNE 04:14:02 54° E 04:19:04 10° S
Cosmos 1674 Rocket 4.2 04:11:10 10° SW 04:15:13 34° WNW 04:19:18 10° N
USA 59 Rocket 1.0 04:14:28 10° NW 04:16:41 19° N 04:19:02 10° NE
COSMOS 2455 4.1 04:13:09 10° NW 04:18:24 29° NNE 04:23:38 10° ENE
Cosmos 1697 Rocket 3.6 04:13:49 10° NNW 04:19:14 45° NE 04:24:38 10° ESE
USA 306 2.8 04:16:42 10° WSW 04:20:14 71° S 04:24:15 10° E
Tsikada Rocket 4.1 04:16:25 10° SSW 04:22:46 81° W 04:29:15 10° N
Cosmos 1484 Rocket 3.4 04:19:56 10° N 04:23:03 29° WNW 04:26:08 10° SW
Cosmos 2221 Rocket 4.1 04:20:41 10° SW 04:24:58 41° WNW 04:29:17 10° N
Thor Agena Rocket 3.6 04:20:13 10° NNE 04:25:26 70° WNW 04:30:33 10° SSW
Cosmos 1110 Rocket 4.3 04:21:44 10° SW 04:26:52 49° NW 04:32:02 10° NNE
